This is the latest recevied weather packets stored in our database for station/object K7MT-WX. If no packets are shown the sender has not sent any weather packets the latest 10 day(s).
| Time | Temp. | Humidity | Pressure | Rain* | Wind** | Luminosity | Snow |
|---|---|---|---|---|---|---|---|
| 1787818408 | 15° C | 77% | 1019.1 hPa | 0 mm | - | - | - |
| 1787817508 | 15° C | 77% | 1019.2 hPa | 0 mm | - | - | - |
| 1787816608 | 15.56° C | 76% | 1019.2 hPa | 0 mm | - | - | - |
| 1787815708 | 16.11° C | 75% | 1019.4 hPa | 0 mm | - | - | - |
| 1787814808 | 15.56° C | 76% | 1019.5 hPa | 0 mm | - | - | - |
| 1787813908 | 16.11° C | 75% | 1019.3 hPa | 0 mm | - | - | - |
| 1787813008 | 16.67° C | 74% | 1019.7 hPa | 0 mm | - | - | - |
| 1787812108 | 17.22° C | 73% | 1019.8 hPa | 0 mm | - | - | - |
| 1787811208 | 17.78° C | 70% | 1019.9 hPa | 0 mm | - | - | - |
| 1787810308 | 18.33° C | 67% | 1020.2 hPa | 0 mm | - | - | - |
| 1787809408 | 18.89° C | 63% | 1020.1 hPa | 0 mm | - | - | - |
| 1787808508 | 20° C | 58% | 1020.3 hPa | 0 mm | - | - | - |
| 1787807608 | 20° C | 59% | 1020.1 hPa | 0 mm | - | - | - |
| 1787806708 | 19.44° C | 65% | 1020.1 hPa | 0 mm | - | - | - |
| 1787805808 | 20° C | 60% | 1020.5 hPa | 0 mm | - | - | - |
| 1787804878 | 21.67° C | 49% | 1020.4 hPa | 0 mm | - | - | - |
| 1787803978 | 18.89° C | 66% | 1019.6 hPa | 0 mm | - | - | - |
| 1787803078 | 18.89° C | 64% | 1018.7 hPa | 0 mm | - | - | - |
| 1787802178 | 18.33° C | 64% | 1018.6 hPa | 0 mm | - | - | - |
| 1787801278 | 19.44° C | 60% | 1018.4 hPa | 0 mm | - | - | - |
| 1787800378 | 20° C | 56% | 1018.5 hPa | 0 mm | - | - | - |
| 1787799478 | 20° C | 56% | 1018.2 hPa | 0 mm | - | - | - |
| 1787798578 | 20.56° C | 56% | 1018.2 hPa | 0 mm | - | - | - |
| 1787797682 | 22.22° C | 51% | 1017.9 hPa | 0 mm | - | - | - |
| 1787796778 | 22.78° C | 47% | 1017.8 hPa | 0 mm | - | - | - |
* Rain latest hour (hover to see other rain measurements)
** Current wind speed in m/s (hover to see current wind gust speed)